Year,Month,Day,Hour,Minute,Value (Times are PST for temperature in C)
2010,08,23,00,00,13.30
2010,08,23,00,01,13.30
2010,08,23,00,02,13.30
2010,08,23,00,03,13.30
2010,08,23,00,04,13.30
2010,08,23,00,05,13.20
2010,08,23,00,06,13.20
2010,08,23,00,07,13.20
2010,08,23,00,08,13.20
2010,08,23,00,09,13.20
2010,08,23,00,10,13.20
2010,08,23,00,11,13.20
2010,08,23,00,12,13.20
2010,08,23,00,13,13.20
2010,08,23,00,14,13.20
2010,08,23,00,15,13.10
2010,08,23,00,16,13.10
2010,08,23,00,17,13.10
2010,08,23,00,18,13.10
2010,08,23,00,19,13.10
2010,08,23,00,20,13.00
2010,08,23,00,21,13.00
2010,08,23,00,22,13.00
2010,08,23,00,23,12.90
2010,08,23,00,24,12.90
2010,08,23,00,25,12.90
2010,08,23,00,26,12.90
2010,08,23,00,27,12.90
2010,08,23,00,28,12.80
2010,08,23,00,29,12.80
2010,08,23,00,30,12.80
2010,08,23,00,31,12.80
2010,08,23,00,32,12.80
2010,08,23,00,33,12.80
2010,08,23,00,34,12.70
2010,08,23,00,35,12.70
2010,08,23,00,36,12.70
2010,08,23,00,37,12.70
2010,08,23,00,38,12.60
2010,08,23,00,39,12.60
2010,08,23,00,40,12.60
2010,08,23,00,41,12.60
2010,08,23,00,42,12.60
2010,08,23,00,43,12.60
2010,08,23,00,44,12.60
2010,08,23,00,45,12.60
2010,08,23,00,46,12.60
2010,08,23,00,47,12.60
2010,08,23,00,48,12.60
2010,08,23,00,49,12.60
2010,08,23,00,50,12.60
2010,08,23,00,51,12.60
2010,08,23,00,52,12.60
2010,08,23,00,53,12.60
2010,08,23,00,54,12.60
2010,08,23,00,55,12.60
2010,08,23,00,56,12.50
2010,08,23,00,57,12.50
2010,08,23,00,58,12.50
2010,08,23,00,59,12.50
2010,08,23,01,00,12.50
2010,08,23,01,01,12.50
2010,08,23,01,02,12.50
2010,08,23,01,03,12.50
2010,08,23,01,04,12.50
2010,08,23,01,05,12.40
2010,08,23,01,06,12.40
2010,08,23,01,07,12.40
2010,08,23,01,08,12.40
2010,08,23,01,09,12.40
2010,08,23,01,10,12.40
2010,08,23,01,11,12.40
2010,08,23,01,12,12.40
2010,08,23,01,13,12.40
2010,08,23,01,14,12.40
2010,08,23,01,15,12.40
2010,08,23,01,16,12.30
2010,08,23,01,17,12.30
2010,08,23,01,18,12.30
2010,08,23,01,19,12.30
2010,08,23,01,20,12.30
2010,08,23,01,21,12.30
2010,08,23,01,22,12.30
2010,08,23,01,23,12.30
2010,08,23,01,24,12.30
2010,08,23,01,25,12.30
2010,08,23,01,26,12.30
2010,08,23,01,27,12.30
2010,08,23,01,28,12.30
2010,08,23,01,29,12.30
2010,08,23,01,30,12.40
2010,08,23,01,31,12.40
2010,08,23,01,32,12.40
2010,08,23,01,33,12.40
2010,08,23,01,34,12.40
2010,08,23,01,35,12.40
2010,08,23,01,36,12.30
2010,08,23,01,37,12.30
2010,08,23,01,38,12.30
2010,08,23,01,39,12.30
2010,08,23,01,40,12.30
2010,08,23,01,41,12.30
2010,08,23,01,42,12.30
2010,08,23,01,43,12.30
2010,08,23,01,44,12.30
2010,08,23,01,45,12.30
2010,08,23,01,46,12.30
2010,08,23,01,47,12.30
2010,08,23,01,48,12.30
2010,08,23,01,49,12.30
2010,08,23,01,50,12.20
2010,08,23,01,51,12.20
2010,08,23,01,52,12.20
2010,08,23,01,53,12.20
2010,08,23,01,54,12.20
2010,08,23,01,55,12.20
2010,08,23,01,56,12.20
2010,08,23,01,57,12.20
2010,08,23,01,58,12.20
2010,08,23,01,59,12.20
2010,08,23,02,00,12.20
2010,08,23,02,01,12.20
2010,08,23,02,02,12.20
2010,08,23,02,03,12.20
2010,08,23,02,04,12.20
2010,08,23,02,05,12.20
2010,08,23,02,06,12.20
2010,08,23,02,07,12.20
2010,08,23,02,08,12.10
2010,08,23,02,09,12.10
2010,08,23,02,10,12.10
2010,08,23,02,11,12.10
2010,08,23,02,12,12.10
2010,08,23,02,13,12.10
2010,08,23,02,14,12.10
2010,08,23,02,15,12.00
2010,08,23,02,16,12.00
2010,08,23,02,17,12.00
2010,08,23,02,18,12.00
2010,08,23,02,19,12.00
2010,08,23,02,20,12.00
2010,08,23,02,21,12.00
2010,08,23,02,22,12.00
2010,08,23,02,23,12.00
2010,08,23,02,24,11.90
2010,08,23,02,25,11.90
2010,08,23,02,26,11.90
2010,08,23,02,27,11.90
2010,08,23,02,28,11.90
2010,08,23,02,29,11.90
2010,08,23,02,30,11.80
2010,08,23,02,31,11.80
2010,08,23,02,32,11.80
2010,08,23,02,33,11.80
2010,08,23,02,34,11.80
2010,08,23,02,35,11.80
2010,08,23,02,36,11.80
2010,08,23,02,37,11.80
2010,08,23,02,38,11.80
2010,08,23,02,39,11.80
2010,08,23,02,40,11.80
2010,08,23,02,41,11.80
2010,08,23,02,42,11.80
2010,08,23,02,43,11.80
2010,08,23,02,44,11.80
2010,08,23,02,45,11.80
2010,08,23,02,46,11.80
2010,08,23,02,47,11.80
2010,08,23,02,48,11.80
2010,08,23,02,49,11.70
2010,08,23,02,50,11.70
2010,08,23,02,51,11.70
2010,08,23,02,52,11.70
2010,08,23,02,53,11.70
2010,08,23,02,54,11.70
2010,08,23,02,55,11.70
2010,08,23,02,56,11.70
2010,08,23,02,57,11.70
2010,08,23,02,58,11.70
2010,08,23,02,59,11.70
2010,08,23,03,00,11.70
2010,08,23,03,01,11.70
2010,08,23,03,02,11.70
2010,08,23,03,03,11.70
2010,08,23,03,04,11.70
2010,08,23,03,05,11.70
2010,08,23,03,06,11.70
2010,08,23,03,07,11.70
2010,08,23,03,08,11.70
2010,08,23,03,09,11.70
2010,08,23,03,10,11.70
2010,08,23,03,11,11.70
2010,08,23,03,12,11.70
2010,08,23,03,13,11.70
2010,08,23,03,14,11.70
2010,08,23,03,15,11.70
2010,08,23,03,16,11.70
2010,08,23,03,17,11.70
2010,08,23,03,18,11.70
2010,08,23,03,19,11.70
2010,08,23,03,20,11.70
2010,08,23,03,21,11.70
2010,08,23,03,22,11.70
2010,08,23,03,23,11.70
2010,08,23,03,24,11.70
2010,08,23,03,25,11.70
2010,08,23,03,26,11.70
2010,08,23,03,27,11.70
2010,08,23,03,28,11.70
2010,08,23,03,29,11.70
2010,08,23,03,30,11.70
2010,08,23,03,31,11.70
2010,08,23,03,32,11.60
2010,08,23,03,33,11.60
2010,08,23,03,34,11.60
2010,08,23,03,35,11.60
2010,08,23,03,36,11.60
2010,08,23,03,37,11.60
2010,08,23,03,38,11.60
2010,08,23,03,39,11.60
2010,08,23,03,40,11.60
2010,08,23,03,41,11.60
2010,08,23,03,42,11.60
2010,08,23,03,43,11.60
2010,08,23,03,44,11.60
2010,08,23,03,45,11.60
2010,08,23,03,46,11.60
2010,08,23,03,47,11.60
2010,08,23,03,48,11.60
2010,08,23,03,49,11.60
2010,08,23,03,50,11.60
2010,08,23,03,51,11.60
2010,08,23,03,52,11.60
2010,08,23,03,53,11.60
2010,08,23,03,54,11.60
2010,08,23,03,55,11.60
2010,08,23,03,56,11.60
2010,08,23,03,57,11.60
2010,08,23,03,58,11.60
2010,08,23,03,59,11.60
2010,08,23,04,00,11.60
2010,08,23,04,01,11.60
2010,08,23,04,02,11.60
2010,08,23,04,03,11.60
2010,08,23,04,04,11.60
2010,08,23,04,05,11.60
2010,08,23,04,06,11.60
2010,08,23,04,07,11.60
2010,08,23,04,08,11.60
2010,08,23,04,09,11.60
2010,08,23,04,10,11.60
2010,08,23,04,11,11.60
2010,08,23,04,12,11.60
2010,08,23,04,13,11.60
2010,08,23,04,14,11.60
2010,08,23,04,15,11.60
2010,08,23,04,16,11.60
2010,08,23,04,17,11.70
2010,08,23,04,18,11.70
2010,08,23,04,19,11.70
2010,08,23,04,20,11.70
2010,08,23,04,21,11.70
2010,08,23,04,22,11.70
2010,08,23,04,23,11.70
2010,08,23,04,24,11.70
2010,08,23,04,25,11.70
2010,08,23,04,26,11.70
2010,08,23,04,27,11.70
2010,08,23,04,28,11.70
2010,08,23,04,29,11.70
2010,08,23,04,30,11.70
2010,08,23,04,31,11.70
2010,08,23,04,32,11.70
2010,08,23,04,33,11.70
2010,08,23,04,34,11.70
2010,08,23,04,35,11.70
2010,08,23,04,36,11.70
2010,08,23,04,37,11.70
2010,08,23,04,38,11.70
2010,08,23,04,39,11.70
2010,08,23,04,40,11.70
2010,08,23,04,41,11.70
2010,08,23,04,42,11.60
2010,08,23,04,43,11.60
2010,08,23,04,44,11.60
2010,08,23,04,45,11.60
2010,08,23,04,46,11.60
2010,08,23,04,47,11.60
2010,08,23,04,48,11.60
2010,08,23,04,49,11.60
2010,08,23,04,50,11.60
2010,08,23,04,51,11.50
2010,08,23,04,52,11.40
2010,08,23,04,53,11.40
2010,08,23,04,54,11.40
2010,08,23,04,55,11.40
2010,08,23,04,56,11.40
2010,08,23,04,57,11.40
2010,08,23,04,58,11.40
2010,08,23,04,59,11.40
2010,08,23,05,00,11.40
2010,08,23,05,01,11.40
2010,08,23,05,02,11.40
2010,08,23,05,03,11.40
2010,08,23,05,04,11.40
2010,08,23,05,05,11.40
2010,08,23,05,06,11.40
2010,08,23,05,07,11.40
2010,08,23,05,08,11.40
2010,08,23,05,09,11.40
2010,08,23,05,10,11.40
2010,08,23,05,11,11.40
2010,08,23,05,12,11.40
2010,08,23,05,13,11.40
2010,08,23,05,14,11.30
2010,08,23,05,15,11.30
2010,08,23,05,16,11.20
2010,08,23,05,17,11.20
2010,08,23,05,18,11.20
2010,08,23,05,19,11.20
2010,08,23,05,20,11.10
2010,08,23,05,21,11.10
2010,08,23,05,22,11.10
2010,08,23,05,23,11.10
2010,08,23,05,24,11.10
2010,08,23,05,25,11.10
2010,08,23,05,26,10.90
2010,08,23,05,27,10.90
2010,08,23,05,28,10.90
2010,08,23,05,29,10.90
2010,08,23,05,30,10.90
2010,08,23,05,31,10.90
2010,08,23,05,32,10.80
2010,08,23,05,33,10.80
2010,08,23,05,34,10.70
2010,08,23,05,35,10.70
2010,08,23,05,36,10.70
2010,08,23,05,37,10.60
2010,08,23,05,38,10.60
2010,08,23,05,39,10.60
2010,08,23,05,40,10.60
2010,08,23,05,41,10.60
2010,08,23,05,42,10.50
2010,08,23,05,43,10.40
2010,08,23,05,44,10.40
2010,08,23,05,45,10.40
2010,08,23,05,46,10.40
2010,08,23,05,47,10.30
2010,08,23,05,48,10.30
2010,08,23,05,49,10.30
2010,08,23,05,50,10.20
2010,08,23,05,51,10.20
2010,08,23,05,52,10.20
2010,08,23,05,53,10.10
2010,08,23,05,54,10.10
2010,08,23,05,55,10.10
2010,08,23,05,56,10.10
2010,08,23,05,57,10.00
2010,08,23,05,58,9.90
2010,08,23,05,59,9.90
2010,08,23,06,00,9.90
2010,08,23,06,01,9.90
2010,08,23,06,02,9.90
2010,08,23,06,03,9.80
2010,08,23,06,04,9.80
2010,08,23,06,05,9.80
2010,08,23,06,06,9.70
2010,08,23,06,07,9.70
2010,08,23,06,08,9.70
2010,08,23,06,09,9.70
2010,08,23,06,10,9.70
2010,08,23,06,11,9.70
2010,08,23,06,12,9.60
2010,08,23,06,13,9.60
2010,08,23,06,14,9.60
2010,08,23,06,15,9.60
2010,08,23,06,16,9.50
2010,08,23,06,17,9.50
2010,08,23,06,18,9.50
2010,08,23,06,19,9.50
2010,08,23,06,20,9.50
2010,08,23,06,21,9.40
2010,08,23,06,22,9.40
2010,08,23,06,23,9.40
2010,08,23,06,24,9.40
2010,08,23,06,25,9.40
2010,08,23,06,26,9.40
2010,08,23,06,27,9.40
2010,08,23,06,28,9.40
2010,08,23,06,29,9.40
2010,08,23,06,30,9.40
2010,08,23,06,31,9.30
2010,08,23,06,32,9.30
2010,08,23,06,33,9.30
2010,08,23,06,34,9.30
2010,08,23,06,35,9.30
2010,08,23,06,36,9.30
2010,08,23,06,37,9.20
2010,08,23,06,38,9.20
2010,08,23,06,39,9.20
2010,08,23,06,40,9.20
2010,08,23,06,41,9.20
2010,08,23,06,42,9.20
2010,08,23,06,43,9.20
2010,08,23,06,44,9.20
2010,08,23,06,45,9.20
2010,08,23,06,46,9.20
2010,08,23,06,47,9.20
2010,08,23,06,48,9.20
2010,08,23,06,49,9.20
2010,08,23,06,50,9.20
2010,08,23,06,51,9.20
2010,08,23,06,52,9.20
2010,08,23,06,53,9.20
2010,08,23,06,54,9.20
2010,08,23,06,55,9.20
2010,08,23,06,56,9.20
2010,08,23,06,57,9.20
2010,08,23,06,58,9.30
2010,08,23,06,59,9.30
2010,08,23,07,00,9.30
2010,08,23,07,01,9.40
2010,08,23,07,02,9.40
2010,08,23,07,03,9.40
2010,08,23,07,04,9.50
2010,08,23,07,05,9.50
2010,08,23,07,06,9.60
2010,08,23,07,07,9.60
2010,08,23,07,08,9.60
2010,08,23,07,09,9.70
2010,08,23,07,10,9.70
2010,08,23,07,11,9.70
2010,08,23,07,12,9.80
2010,08,23,07,13,9.80
2010,08,23,07,14,9.90
2010,08,23,07,15,9.90
2010,08,23,07,16,9.90
2010,08,23,07,17,10.00
2010,08,23,07,18,10.10
2010,08,23,07,19,10.10
2010,08,23,07,20,10.10
2010,08,23,07,21,10.20
2010,08,23,07,22,10.20
2010,08,23,07,23,10.30
2010,08,23,07,24,10.40
2010,08,23,07,25,10.40
2010,08,23,07,26,10.50
2010,08,23,07,27,10.60
2010,08,23,07,28,10.60
2010,08,23,07,29,10.60
2010,08,23,07,30,10.70
2010,08,23,07,31,10.80
2010,08,23,07,32,10.90
2010,08,23,07,33,10.90
2010,08,23,07,34,11.00
2010,08,23,07,35,11.10
2010,08,23,07,36,11.10
2010,08,23,07,37,11.20
2010,08,23,07,38,11.30
2010,08,23,07,39,11.30
2010,08,23,07,40,11.40
2010,08,23,07,41,11.50
2010,08,23,07,42,11.60
2010,08,23,07,43,11.60
2010,08,23,07,44,11.70
2010,08,23,07,45,11.70
2010,08,23,07,46,11.70
2010,08,23,07,47,11.80
2010,08,23,07,48,11.80
2010,08,23,07,49,11.90
2010,08,23,07,50,11.90
2010,08,23,07,51,12.00
2010,08,23,07,52,12.10
2010,08,23,07,53,12.20
2010,08,23,07,54,12.30
2010,08,23,07,55,12.40
2010,08,23,07,56,12.50
2010,08,23,07,57,12.50
2010,08,23,07,58,12.60
2010,08,23,07,59,12.70
2010,08,23,08,00,12.80
2010,08,23,08,01,12.80
2010,08,23,08,02,12.80
2010,08,23,08,03,12.90
2010,08,23,08,04,13.00
2010,08,23,08,05,13.10
2010,08,23,08,06,13.10
2010,08,23,08,07,13.20
2010,08,23,08,08,13.30
2010,08,23,08,09,13.40
2010,08,23,08,10,13.50
2010,08,23,08,11,13.60
2010,08,23,08,12,13.70
2010,08,23,08,13,13.80
2010,08,23,08,14,13.90
2010,08,23,08,15,14.00
2010,08,23,08,16,14.10
2010,08,23,08,17,14.20
2010,08,23,08,18,14.30
2010,08,23,08,19,14.40
2010,08,23,08,20,14.50
2010,08,23,08,21,14.60
2010,08,23,08,22,14.70
2010,08,23,08,23,14.80
2010,08,23,08,24,14.90
2010,08,23,08,25,15.00
2010,08,23,08,26,15.10
2010,08,23,08,27,15.20
2010,08,23,08,28,15.30
2010,08,23,08,29,15.30
2010,08,23,08,30,15.40
2010,08,23,08,31,15.50
2010,08,23,08,32,15.50
2010,08,23,08,33,15.60
2010,08,23,08,34,15.70
2010,08,23,08,35,15.80
2010,08,23,08,36,15.80
2010,08,23,08,37,15.80
2010,08,23,08,38,15.80
2010,08,23,08,39,15.80
2010,08,23,08,40,15.80
2010,08,23,08,41,15.80
2010,08,23,08,42,15.80
2010,08,23,08,43,15.70
2010,08,23,08,44,15.70
2010,08,23,08,45,15.60
2010,08,23,08,46,15.60
2010,08,23,08,47,15.60
2010,08,23,08,48,15.70
2010,08,23,08,49,15.70
2010,08,23,08,50,15.80
2010,08,23,08,51,15.80
2010,08,23,08,52,15.80
2010,08,23,08,53,15.80
2010,08,23,08,54,15.90
2010,08,23,08,55,15.90
2010,08,23,08,56,16.00
2010,08,23,08,57,16.10
2010,08,23,08,58,16.10
2010,08,23,08,59,16.10
2010,08,23,09,00,16.20
2010,08,23,09,01,16.20
2010,08,23,09,02,16.10
2010,08,23,09,03,16.00
2010,08,23,09,04,15.90
2010,08,23,09,05,15.80
2010,08,23,09,06,15.70
2010,08,23,09,07,15.70
2010,08,23,09,08,15.60
2010,08,23,09,09,15.60
2010,08,23,09,10,15.60
2010,08,23,09,11,15.70
2010,08,23,09,12,15.70
2010,08,23,09,13,15.80
2010,08,23,09,14,15.80
2010,08,23,09,15,15.90
2010,08,23,09,16,15.90
2010,08,23,09,17,15.90
2010,08,23,09,18,15.90
2010,08,23,09,19,15.90
2010,08,23,09,20,15.90
2010,08,23,09,21,15.80
2010,08,23,09,22,15.80
2010,08,23,09,23,15.80
2010,08,23,09,24,15.80
2010,08,23,09,25,15.80
2010,08,23,09,26,15.80
2010,08,23,09,27,15.80
2010,08,23,09,28,15.80
2010,08,23,09,29,15.60
2010,08,23,09,30,15.60
2010,08,23,09,31,15.60
2010,08,23,09,32,15.60
2010,08,23,09,33,15.70
2010,08,23,09,34,15.70
2010,08,23,09,35,15.70
2010,08,23,09,36,15.70
2010,08,23,09,37,15.70
2010,08,23,09,38,15.70
2010,08,23,09,39,15.70
2010,08,23,09,40,15.70
2010,08,23,09,41,15.70
2010,08,23,09,42,15.80
2010,08,23,09,43,15.80
2010,08,23,09,44,15.90
2010,08,23,09,45,16.00
2010,08,23,09,46,16.10
2010,08,23,09,47,16.20
2010,08,23,09,48,16.20
2010,08,23,09,49,16.10
2010,08,23,09,50,16.10
2010,08,23,09,51,16.10
2010,08,23,09,52,16.10
2010,08,23,09,53,16.10
2010,08,23,09,54,16.20
2010,08,23,09,55,16.30
2010,08,23,09,56,16.30
2010,08,23,09,57,16.20
2010,08,23,09,58,16.30
2010,08,23,09,59,16.30
2010,08,23,10,00,16.30
2010,08,23,10,01,16.40
2010,08,23,10,02,16.40
2010,08,23,10,03,16.60
2010,08,23,10,04,16.70
2010,08,23,10,05,16.80
2010,08,23,10,06,16.80
2010,08,23,10,07,16.80
2010,08,23,10,08,16.80
2010,08,23,10,09,16.80
2010,08,23,10,10,16.70
2010,08,23,10,11,16.80
2010,08,23,10,12,16.80
2010,08,23,10,13,16.90
2010,08,23,10,14,16.90
2010,08,23,10,15,16.80
2010,08,23,10,16,16.90
2010,08,23,10,17,17.00
2010,08,23,10,18,17.00
2010,08,23,10,19,17.10
2010,08,23,10,20,17.20
2010,08,23,10,21,17.10
2010,08,23,10,22,17.10
2010,08,23,10,23,17.10
2010,08,23,10,24,17.10
2010,08,23,10,25,17.10
2010,08,23,10,26,17.00
2010,08,23,10,27,16.80
2010,08,23,10,28,16.60
2010,08,23,10,29,16.40
2010,08,23,10,30,16.50
2010,08,23,10,31,16.60
2010,08,23,10,32,16.70
2010,08,23,10,33,16.80
2010,08,23,10,34,16.70
2010,08,23,10,35,16.70
2010,08,23,10,36,16.80
2010,08,23,10,37,16.90
2010,08,23,10,38,16.90
2010,08,23,10,39,16.80
2010,08,23,10,40,16.80
2010,08,23,10,41,16.70
2010,08,23,10,42,16.50
2010,08,23,10,43,16.40
2010,08,23,10,44,16.40
2010,08,23,10,45,16.40
2010,08,23,10,46,16.50
2010,08,23,10,47,16.70
2010,08,23,10,48,16.70
2010,08,23,10,49,16.80
2010,08,23,10,50,16.90
2010,08,23,10,51,16.80
2010,08,23,10,52,16.70
2010,08,23,10,53,16.70
2010,08,23,10,54,16.70
2010,08,23,10,55,16.70
2010,08,23,10,56,16.70
2010,08,23,10,57,16.80
2010,08,23,10,58,16.90
2010,08,23,10,59,17.00
2010,08,23,11,00,17.10
2010,08,23,11,01,17.00
2010,08,23,11,02,16.90
2010,08,23,11,03,16.80
2010,08,23,11,04,16.70
2010,08,23,11,05,16.70
2010,08,23,11,06,16.70
2010,08,23,11,07,16.70
2010,08,23,11,08,16.80
2010,08,23,11,09,16.90
2010,08,23,11,10,16.90
2010,08,23,11,11,17.00
2010,08,23,11,12,17.00
2010,08,23,11,13,17.00
2010,08,23,11,14,17.20
2010,08,23,11,15,17.20
2010,08,23,11,16,17.20
2010,08,23,11,17,17.20
2010,08,23,11,18,17.20
2010,08,23,11,19,17.30
2010,08,23,11,20,17.40
2010,08,23,11,21,17.40
2010,08,23,11,22,17.40
2010,08,23,11,23,17.50
2010,08,23,11,24,17.40
2010,08,23,11,25,17.30
2010,08,23,11,26,17.20
2010,08,23,11,27,17.00
2010,08,23,11,28,16.90
2010,08,23,11,29,16.90
2010,08,23,11,30,17.00
2010,08,23,11,31,17.00
2010,08,23,11,32,16.90
2010,08,23,11,33,16.90
2010,08,23,11,34,17.00
2010,08,23,11,35,17.00
2010,08,23,11,36,17.00
2010,08,23,11,37,17.00
2010,08,23,11,38,17.10
2010,08,23,11,39,17.10
2010,08,23,11,40,17.00
2010,08,23,11,41,16.90
2010,08,23,11,42,16.90
2010,08,23,11,43,17.00
2010,08,23,11,44,17.00
2010,08,23,11,45,17.10
2010,08,23,11,46,17.20
2010,08,23,11,47,17.30
2010,08,23,11,48,17.30
2010,08,23,11,49,17.30
2010,08,23,11,50,17.20
2010,08,23,11,51,17.10
2010,08,23,11,52,17.10
2010,08,23,11,53,17.10
2010,08,23,11,54,17.20
2010,08,23,11,55,17.30
2010,08,23,11,56,17.20
2010,08,23,11,57,17.00
2010,08,23,11,58,16.90
2010,08,23,11,59,16.80
2010,08,23,12,00,16.90
2010,08,23,12,01,17.00
2010,08,23,12,02,17.10
2010,08,23,12,03,17.20
2010,08,23,12,04,17.30
2010,08,23,12,05,17.30
2010,08,23,12,06,17.30
2010,08,23,12,07,17.30
2010,08,23,12,08,17.30
2010,08,23,12,09,17.30
2010,08,23,12,10,17.30
2010,08,23,12,11,17.20
2010,08,23,12,12,17.10
2010,08,23,12,13,16.80
2010,08,23,12,14,16.70
2010,08,23,12,15,16.50
2010,08,23,12,16,16.30
2010,08,23,12,17,16.30
2010,08,23,12,18,16.20
2010,08,23,12,19,16.20
2010,08,23,12,20,16.20
2010,08,23,12,21,16.10
2010,08,23,12,22,16.10
2010,08,23,12,23,16.10
2010,08,23,12,24,16.40
2010,08,23,12,25,16.60
2010,08,23,12,26,16.80
2010,08,23,12,27,16.70
2010,08,23,12,28,16.50
2010,08,23,12,29,16.40
2010,08,23,12,30,16.50
2010,08,23,12,31,16.70
2010,08,23,12,32,16.90
2010,08,23,12,33,17.10
2010,08,23,12,34,17.40
2010,08,23,12,35,17.60
2010,08,23,12,36,17.70
2010,08,23,12,37,17.80
2010,08,23,12,38,17.90
2010,08,23,12,39,17.90
2010,08,23,12,40,17.90
2010,08,23,12,41,17.70
2010,08,23,12,42,17.50
2010,08,23,12,43,17.40
2010,08,23,12,44,17.20
2010,08,23,12,45,17.10
2010,08,23,12,46,17.10
2010,08,23,12,47,17.00
2010,08,23,12,48,16.90
2010,08,23,12,49,16.90
2010,08,23,12,50,16.90
2010,08,23,12,51,17.00
2010,08,23,12,52,17.00
2010,08,23,12,53,17.00
2010,08,23,12,54,16.90
2010,08,23,12,55,17.10
2010,08,23,12,56,17.30
2010,08,23,12,57,17.40
2010,08,23,12,58,17.50
2010,08,23,12,59,17.50
2010,08,23,13,00,17.40
2010,08,23,13,01,17.30
2010,08,23,13,02,17.40
2010,08,23,13,03,17.40
2010,08,23,13,04,17.30
2010,08,23,13,05,17.20
2010,08,23,13,06,17.00
2010,08,23,13,07,16.90
2010,08,23,13,08,16.90
2010,08,23,13,09,17.10
2010,08,23,13,10,17.20
2010,08,23,13,11,17.20
2010,08,23,13,12,17.20
2010,08,23,13,13,17.20
2010,08,23,13,14,17.40
2010,08,23,13,15,17.70
2010,08,23,13,16,17.80
2010,08,23,13,17,17.60
2010,08,23,13,18,17.50
2010,08,23,13,19,17.50
2010,08,23,13,20,17.50
2010,08,23,13,21,17.50
2010,08,23,13,22,17.50
2010,08,23,13,23,17.50
2010,08,23,13,24,17.70
2010,08,23,13,25,17.90
2010,08,23,13,26,18.10
2010,08,23,13,27,18.20
2010,08,23,13,28,18.20
2010,08,23,13,29,18.10
2010,08,23,13,30,17.90
2010,08,23,13,31,17.70
2010,08,23,13,32,17.50
2010,08,23,13,33,17.40
2010,08,23,13,34,17.30
2010,08,23,13,35,17.30
2010,08,23,13,36,17.30
2010,08,23,13,37,17.40
2010,08,23,13,38,17.50
2010,08,23,13,39,17.70
2010,08,23,13,40,17.80
2010,08,23,13,41,17.90
2010,08,23,13,42,17.80
2010,08,23,13,43,17.90
2010,08,23,13,44,17.90
2010,08,23,13,45,17.90
2010,08,23,13,46,18.00
2010,08,23,13,47,17.90
2010,08,23,13,48,17.80
2010,08,23,13,49,17.90
2010,08,23,13,50,17.90
2010,08,23,13,51,17.80
2010,08,23,13,52,17.60
2010,08,23,13,53,17.50
2010,08,23,13,54,17.50
2010,08,23,13,55,17.60
2010,08,23,13,56,17.70
2010,08,23,13,57,17.90
2010,08,23,13,58,18.10
2010,08,23,13,59,18.30
2010,08,23,14,00,18.50
2010,08,23,14,01,18.70
2010,08,23,14,02,18.80
2010,08,23,14,03,18.60
2010,08,23,14,04,18.50
2010,08,23,14,05,18.30
2010,08,23,14,06,18.30
2010,08,23,14,07,18.20
2010,08,23,14,08,18.20
2010,08,23,14,09,18.10
2010,08,23,14,10,18.00
2010,08,23,14,11,17.90
2010,08,23,14,12,17.80
2010,08,23,14,13,17.80
2010,08,23,14,14,17.80
2010,08,23,14,15,17.80
2010,08,23,14,16,17.80
2010,08,23,14,17,17.80
2010,08,23,14,18,17.80
2010,08,23,14,19,17.80
2010,08,23,14,20,17.90
2010,08,23,14,21,17.90
2010,08,23,14,22,18.00
2010,08,23,14,23,18.10
2010,08,23,14,24,18.00
2010,08,23,14,25,17.80
2010,08,23,14,26,17.60
2010,08,23,14,27,17.60
2010,08,23,14,28,17.60
2010,08,23,14,29,17.60
2010,08,23,14,30,17.50
2010,08,23,14,31,17.50
2010,08,23,14,32,17.40
2010,08,23,14,33,17.40
2010,08,23,14,34,17.50
2010,08,23,14,35,17.60
2010,08,23,14,36,17.90
2010,08,23,14,37,18.10
2010,08,23,14,38,18.20
2010,08,23,14,39,18.20
2010,08,23,14,40,18.20
2010,08,23,14,41,18.10
2010,08,23,14,42,17.90
2010,08,23,14,43,17.90
2010,08,23,14,44,17.90
2010,08,23,14,45,17.90
2010,08,23,14,46,17.90
2010,08,23,14,47,17.90
2010,08,23,14,48,17.90
2010,08,23,14,49,18.00
2010,08,23,14,50,18.10
2010,08,23,14,51,18.20
2010,08,23,14,52,18.20
2010,08,23,14,53,18.20
2010,08,23,14,54,18.20
2010,08,23,14,55,18.30
2010,08,23,14,56,18.50
2010,08,23,14,57,18.50
2010,08,23,14,58,18.50
2010,08,23,14,59,18.50
2010,08,23,15,00,18.50
2010,08,23,15,01,18.60
2010,08,23,15,02,18.60
2010,08,23,15,03,18.60
2010,08,23,15,04,18.80
2010,08,23,15,05,18.90
2010,08,23,15,06,19.00
2010,08,23,15,07,19.20
2010,08,23,15,08,19.30
2010,08,23,15,09,19.20
2010,08,23,15,10,19.20
2010,08,23,15,11,19.20
2010,08,23,15,12,19.10
2010,08,23,15,13,19.10
2010,08,23,15,14,19.10
2010,08,23,15,15,19.10
2010,08,23,15,16,19.00
2010,08,23,15,17,18.80
2010,08,23,15,18,18.70
2010,08,23,15,19,18.70
2010,08,23,15,20,18.80
2010,08,23,15,21,18.80
2010,08,23,15,22,18.90
2010,08,23,15,23,19.10
2010,08,23,15,24,19.30
2010,08,23,15,25,19.20
2010,08,23,15,26,19.10
2010,08,23,15,27,19.00
2010,08,23,15,28,18.80
2010,08,23,15,29,18.60
2010,08,23,15,30,18.50
2010,08,23,15,31,18.40
2010,08,23,15,32,18.40
2010,08,23,15,33,18.30
2010,08,23,15,34,18.30
2010,08,23,15,35,18.50
2010,08,23,15,36,18.60
2010,08,23,15,37,18.80
2010,08,23,15,38,18.90
2010,08,23,15,39,18.90
2010,08,23,15,40,18.90
2010,08,23,15,41,18.90
2010,08,23,15,42,18.90
2010,08,23,15,43,18.90
2010,08,23,15,44,18.90
2010,08,23,15,45,18.90
2010,08,23,15,46,18.90
2010,08,23,15,47,18.90
2010,08,23,15,48,18.90
2010,08,23,15,49,18.80
2010,08,23,15,50,18.60
2010,08,23,15,51,18.50
2010,08,23,15,52,18.60
2010,08,23,15,53,18.60
2010,08,23,15,54,18.70
2010,08,23,15,55,18.80
2010,08,23,15,56,18.90
2010,08,23,15,57,18.90
2010,08,23,15,58,18.90
2010,08,23,15,59,18.90
2010,08,23,16,00,19.00
2010,08,23,16,01,19.10
2010,08,23,16,02,19.10
2010,08,23,16,03,19.10
2010,08,23,16,04,19.10
2010,08,23,16,05,19.00
2010,08,23,16,06,18.90
2010,08,23,16,07,18.90
2010,08,23,16,08,18.80
2010,08,23,16,09,18.70
2010,08,23,16,10,18.60
2010,08,23,16,11,18.50
2010,08,23,16,12,18.40
2010,08,23,16,13,18.50
2010,08,23,16,14,18.70
2010,08,23,16,15,18.80
2010,08,23,16,16,18.90
2010,08,23,16,17,18.90
2010,08,23,16,18,19.00
2010,08,23,16,19,19.10
2010,08,23,16,20,19.10
2010,08,23,16,21,19.00
2010,08,23,16,22,18.90
2010,08,23,16,23,18.90
2010,08,23,16,24,19.00
2010,08,23,16,25,19.00
2010,08,23,16,26,19.00
2010,08,23,16,27,19.10
2010,08,23,16,28,19.10
2010,08,23,16,29,19.10
2010,08,23,16,30,19.00
2010,08,23,16,31,18.90
2010,08,23,16,32,18.90
2010,08,23,16,33,18.80
2010,08,23,16,34,18.90
2010,08,23,16,35,18.90
2010,08,23,16,36,18.90
2010,08,23,16,37,18.80
2010,08,23,16,38,18.70
2010,08,23,16,39,18.70
2010,08,23,16,40,18.70
2010,08,23,16,41,18.80
2010,08,23,16,42,18.90
2010,08,23,16,43,18.90
2010,08,23,16,44,18.90
2010,08,23,16,45,18.90
2010,08,23,16,46,18.90
2010,08,23,16,47,18.90
2010,08,23,16,48,18.90
2010,08,23,16,49,18.90
2010,08,23,16,50,18.90
2010,08,23,16,51,18.90
2010,08,23,16,52,18.90
2010,08,23,16,53,18.90
2010,08,23,16,54,19.00
2010,08,23,16,55,19.10
2010,08,23,16,56,19.10
2010,08,23,16,57,19.10
2010,08,23,16,58,19.00
2010,08,23,16,59,18.90
2010,08,23,17,00,18.90
2010,08,23,17,01,18.90
2010,08,23,17,02,18.90
2010,08,23,17,03,18.70
2010,08,23,17,04,18.70
2010,08,23,17,05,18.60
2010,08,23,17,06,18.60
2010,08,23,17,07,18.60
2010,08,23,17,08,18.70
2010,08,23,17,09,18.70
2010,08,23,17,10,18.60
2010,08,23,17,11,18.60
2010,08,23,17,12,18.60
2010,08,23,17,13,18.60
2010,08,23,17,14,18.70
2010,08,23,17,15,18.80
2010,08,23,17,16,18.90
2010,08,23,17,17,18.90
2010,08,23,17,18,19.00
2010,08,23,17,19,19.10
2010,08,23,17,20,19.10
2010,08,23,17,21,19.10
2010,08,23,17,22,19.20